Home > Time Zones > World Clock > Weather > Italy > Monza > Past weeks

Flag for Italy Weather past 2 weeks in Monza, Italy

Now
50 °F

Passing clouds.


Feels Like: 50 °F
Forecast: 38 / 50 °F
Wind: 1 mph from North

Location: Milan / Linate

Current Time: Mar 4, 2015 at 7:57:38 PM

Latest Report: Mar 4, 2015 at 7:20 PM


Visibility: 5 mi

Pressure: 30.04 "Hg

Humidity: 82%

Dew point: 45 °F

Location of MonzaLocation

Historic Weather in Monza — Graph

°F

Monza temperature yesterday

Maximum temperature yesterday: 59 °F (at 2:50 PM)
Minimum temperature yesterday: 36 °F (at 6:50 AM)
Average temperature yesterday: 49 °F

Past Weeks' High & Low Weather Summary

 TemperatureHumidityPressure
High59 °F (Mar 3, 2:50 PM)100% (Feb 18, 11:50 PM)30.63 "Hg (Feb 18, 11:50 PM)
Low30 °F (Feb 20, 6:20 AM)30% (Feb 25, 3:50 AM)29.53 "Hg (Feb 22, 2:20 AM)
Average45 °F80%30.00 "Hg
* Reported Feb 17 6:20 PM — Mar 4 6:20 PM, Monza, Weather by CustomWeather, © 2015

Note: Actual official high and low records may vary slightly from our data, if they occured in-between our weather recording intervals... More about our weather records

Advertising

Monza weather history for previous 24 hours

 ConditionsComfort  
Time TempWeatherWind HumidityBarometerVisibility
6:20 PM
Wed, Mar 4
50 °FFog.2 mph82%30.04 "Hg2 mi
5:50 PM50 °FFog.3 mph82%30.04 "Hg3 mi
5:20 PM50 °FScattered clouds.5 mph82%30.04 "Hg4 mi
4:50 PM50 °FClear.6 mph82%30.04 "Hg4 mi
4:20 PM52 °FClear.6 mph77%30.04 "Hg4 mi
3:50 PM52 °FClear.6 mph77%30.04 "Hg4 mi
3:20 PM52 °FClear.6 mph82%30.07 "Hg4 mi
2:50 PM52 °FClear.3 mph82%30.07 "Hg5 mi
2:20 PM52 °FClear.5 mph77%30.07 "Hg5 mi
1:50 PM52 °FPassing clouds.5 mph77%30.09 "Hg5 mi
1:20 PM52 °FPassing clouds.6 mph82%30.09 "Hg4 mi
12:50 PM50 °FFog.7 mph88%30.12 "Hg3 mi
12:20 PM50 °FPassing clouds.5 mph82%30.12 "Hg5 mi
11:50 AM52 °FPassing clouds.2 mph82%30.12 "Hg4 mi
11:20 AM48 °FFog.3 mph100%30.15 "Hg3 mi
10:50 AM46 °FFog.3 mph100%30.15 "Hg3 mi
10:20 AM45 °FFog.3 mph100%30.18 "Hg2 mi
9:50 AM43 °FFog.3 mph100%30.18 "Hg1 mi
9:20 AM41 °FFog.3 mph100%30.18 "Hg0 mi
8:50 AM39 °FFog.6 mph100%30.18 "Hg0 mi
8:20 AM37 °FFog.5 mph100%30.18 "Hg0 mi
7:50 AM37 °FFog.3 mph100%30.18 "Hg1 mi
7:20 AM37 °FFog.1 mph100%30.15 "Hg1 mi
6:50 AM37 °FFog.2 mph100%30.18 "Hg0 mi
6:20 AM36 °FLight fog.5 mph100%30.18 "Hg1 mi
5:50 AM37 °FLight fog.No wind100%30.18 "Hg1 mi
5:20 AM37 °FLight fog.No wind100%30.18 "Hg1 mi
4:50 AM37 °FLight fog.2 mph100%30.18 "Hg1 mi
4:20 AM41 °FLight fog.1 mph100%30.18 "Hg1 mi
3:50 AM39 °FLight fog.1 mph100%30.18 "Hg1 mi
3:20 AM41 °FLight fog.2 mph100%30.18 "Hg2 mi
2:50 AM45 °FLight fog.3 mph100%30.18 "Hg3 mi
2:20 AM45 °FLight fog.3 mph100%30.18 "Hg3 mi
1:50 AM45 °FLight fog.5 mph100%30.18 "Hg3 mi
1:20 AM45 °FLight fog.3 mph100%30.18 "Hg3 mi
12:50 AM43 °FFog.2 mph100%30.18 "Hg3 mi
12:20 AM45 °FFog.5 mph100%30.21 "Hg3 mi
11:50 PM
Tue, Mar 3
45 °FFog.6 mph100%30.21 "Hg3 mi
11:20 PM46 °FFog.6 mph93%30.21 "Hg3 mi
10:50 PM46 °FFog.7 mph100%30.21 "Hg3 mi
10:20 PM46 °FFog.6 mph100%30.21 "Hg3 mi
9:50 PM46 °FClear.7 mph93%30.21 "Hg4 mi
9:20 PM48 °FClear.5 mph87%30.21 "Hg5 mi
8:50 PM48 °FClear.5 mph87%30.21 "Hg5 mi
8:20 PM50 °FClear.3 mph88%30.21 "Hg5 mi
7:50 PM50 °FPassing clouds.6 mph88%30.21 "HgN/A
7:20 PM52 °FClear.7 mph82%30.18 "Hg10 mi
Weather by CustomWeather, © 2015

See weather overviewHow to use our weather pages